| time (UTC) | temp F | wind direction | speed MPH | gust MPH | rain 1hr in | rain 24hr in | rain mn in | humidity % | barometer mb |
| 20260902212014 | 102 | 129 | 17.0 | 24.0 | 0.00 | 0.00 | 0.00 | 32 | 1009.2 |
| 20260902211117 | 102 | 144 | 18.0 | 29.0 | 0.00 | 0.00 | 0.00 | 33 | 1009.2 |
| 20260902210214 | 103 | 149 | 16.0 | 26.0 | 0.00 | 0.00 | 0.00 | 34 | 1009.3 |
| 20260902205403 | 103 | 146 | 17.0 | 25.0 | 0.00 | 0.00 | 0.00 | 33 | 1009.4 |
| 20260902204503 | 102 | 144 | 18.0 | 25.0 | 0.00 | 0.00 | 0.00 | 34 | 1009.5 |
| 20260902203815 | 102 | 150 | 17.0 | 28.0 | 0.00 | 0.00 | 0.00 | 34 | 1009.6 |
| 20260902202913 | 103 | 142 | 18.0 | 28.0 | 0.00 | 0.00 | 0.00 | 34 | 1009.8 |
| 20260902202015 | 102 | 151 | 19.0 | 30.0 | 0.00 | 0.00 | 0.00 | 36 | 1009.8 |
| 20260902201117 | 102 | 156 | 20.0 | 33.0 | 0.00 | 0.00 | 0.00 | 34 | 1010.0 |
| 20260902200215 | 102 | 144 | 21.0 | 31.0 | 0.00 | 0.00 | 0.00 | 35 | 1010.0 |
| 20260902195403 | 102 | 140 | 20.0 | 29.0 | 0.00 | 0.00 | 0.00 | 35 | 1010.1 |
| 20260902194503 | 102 | 151 | 20.0 | 29.0 | 0.00 | 0.00 | 0.00 | 35 | 1010.2 |
| 20260902193603 | 102 | 160 | 17.0 | 26.0 | 0.00 | 0.00 | 0.00 | 36 | 1010.3 |
| 20260902192703 | 102 | 150 | 20.0 | 31.0 | 0.00 | 0.00 | 0.00 | 36 | 1010.5 |
| 20260902191803 | 101 | 161 | 21.0 | 31.0 | 0.00 | 0.00 | 0.00 | 36 | 1010.6 |
| 20260902191113 | 101 | 163 | 21.0 | 31.0 | 0.00 | 0.00 | 0.00 | 36 | 1010.6 |
| 20260902190003 | 101 | 161 | 22.0 | 35.0 | 0.00 | 0.00 | 0.00 | 36 | 1010.7 |
| 20260902185617 | 101 | 161 | 21.0 | 35.0 | 0.00 | 0.00 | 0.00 | 35 | 1010.8 |
| 20260902184714 | 100 | 167 | 22.0 | 33.0 | 0.00 | 0.00 | 0.00 | 37 | 1011.0 |
| 20260902183817 | 100 | 162 | 23.0 | 33.0 | 0.00 | 0.00 | 0.00 | 37 | 1011.1 |
| 20260902182914 | 100 | 158 | 18.0 | 29.0 | 0.00 | 0.00 | 0.00 | 39 | 1011.3 |
| 20260902181803 | 100 | 150 | 19.0 | 30.0 | 0.00 | 0.00 | 0.00 | 40 | 1011.4 |
| 20260902180904 | 99 | 153 | 16.0 | 27.0 | 0.00 | 0.00 | 0.00 | 42 | 1011.4 |
| 20260902180005 | 99 | 163 | 18.0 | 30.0 | 0.00 | 0.00 | 0.00 | 43 | 1011.5 |
| 20260902175613 | 98 | 163 | 18.0 | 30.0 | 0.00 | 0.00 | 0.00 | 43 | 1011.6 |
| 20260902174715 | 97 | 165 | 17.0 | 27.0 | 0.00 | 0.00 | 0.00 | 44 | 1011.7 |
| 20260902173812 | 97 | 162 | 18.0 | 28.0 | 0.00 | 0.00 | 0.00 | 43 | 1011.8 |
| 20260902172915 | 95 | 161 | 17.0 | 29.0 | 0.00 | 0.00 | 0.00 | 46 | 1012.0 |
| 20260902171803 | 95 | 163 | 17.0 | 26.0 | 0.00 | 0.00 | 0.00 | 47 | 1012.0 |
| 20260902170903 | 93 | 157 | 16.0 | 26.0 | 0.00 | 0.00 | 0.00 | 49 | 1012.2 |
| 20260902170217 | 92 | 161 | 9.0 | 18.0 | 0.00 | 0.00 | 0.00 | 52 | 1012.2 |
| 20260902165613 | 92 | 168 | 8.0 | 13.0 | 0.00 | 0.00 | 0.00 | 53 | 1012.3 |
| 20260902164716 | 91 | 172 | 9.0 | 15.0 | 0.00 | 0.00 | 0.00 | 53 | 1012.4 |
| 20260902163813 | 90 | 168 | 12.0 | 18.0 | 0.00 | 0.00 | 0.00 | 54 | 1012.5 |
| 20260902162703 | 90 | 156 | 14.0 | 21.0 | 0.00 | 0.00 | 0.00 | 54 | 1012.5 |
| 20260902161803 | 90 | 160 | 15.0 | 22.0 | 0.00 | 0.00 | 0.00 | 54 | 1012.5 |
| 20260902160903 | 89 | 169 | 16.0 | 25.0 | 0.00 | 0.00 | 0.00 | 54 | 1012.6 |
| 20260902160217 | 88 | 167 | 16.0 | 25.0 | 0.00 | 0.00 | 0.00 | 54 | 1012.6 |
| 20260902155404 | 89 | 167 | 15.0 | 22.0 | 0.00 | 0.00 | 0.00 | 55 | 1012.7 |
| 20260902154716 | 88 | 165 | 15.0 | 24.0 | 0.00 | 0.00 | 0.00 | 56 | 1012.6 |
| 20260902153814 | 87 | 168 | 15.0 | 23.0 | 0.00 | 0.00 | 0.00 | 56 | 1012.7 |
| 20260902152704 | 88 | 166 | 16.0 | 24.0 | 0.00 | 0.00 | 0.00 | 54 | 1012.6 |
| 20260902151803 | 87 | 165 | 16.0 | 24.0 | 0.00 | 0.00 | 0.00 | 56 | 1012.6 |
| 20260902150904 | 87 | 163 | 12.0 | 20.0 | 0.00 | 0.00 | 0.00 | 57 | 1012.6 |
| 20260902150003 | 86 | 163 | 11.0 | 17.0 | 0.00 | 0.00 | 0.00 | 58 | 1012.6 |
| 20260902145403 | 86 | 163 | 12.0 | 17.0 | 0.00 | 0.00 | 0.00 | 60 | 1012.6 |
| 20260902144503 | 85 | 157 | 12.0 | 18.0 | 0.00 | 0.00 | 0.00 | 60 | 1012.5 |
| 20260902143814 | 84 | 157 | 11.0 | 17.0 | 0.00 | 0.00 | 0.00 | 62 | 1012.5 |
| 20260902142705 | 83 | 147 | 8.0 | 13.0 | 0.00 | 0.00 | 0.00 | 63 | 1012.6 |
| 20260902142014 | 82 | 117 | 7.0 | 10.0 | 0.00 | 0.00 | 0.00 | 67 | 1012.7 |
| 20260902141116 | 79 | 43 | 7.0 | 9.0 | 0.00 | 0.00 | 0.00 | 70 | 1012.6 |
| 20260902140004 | 78 | 8 | 7.0 | 9.0 | 0.00 | 0.00 | 0.00 | 70 | 1012.7 |
| 20260902135404 | 77 | 13 | 7.0 | 10.0 | 0.00 | 0.00 | 0.00 | 72 | 1012.6 |
| 20260902134712 | 76 | 55 | 6.0 | 8.0 | 0.00 | 0.00 | 0.00 | 74 | 1012.6 |
| 20260902133603 | 75 | 71 | 6.0 | 7.0 | 0.00 | 0.00 | 0.00 | 75 | 1012.6 |
| 20260902132917 | 74 | 33 | 6.0 | 7.0 | 0.00 | 0.00 | 0.00 | 76 | 1012.7 |
| 20260902131803 | 74 | 94 | 5.0 | 7.0 | 0.00 | 0.00 | 0.00 | 75 | 1012.6 |
| 20260902131117 | 74 | 51 | 5.0 | 8.0 | 0.00 | 0.00 | 0.00 | 75 | 1012.5 |
| 20260902130003 | 75 | 42 | 6.0 | 8.0 | 0.00 | 0.00 | 0.00 | 74 | 1012.6 |
| 20260902125616 | 75 | 49 | 5.0 | 8.0 | 0.00 | 0.00 | 0.00 | 74 | 1012.5 |
| 20260902124504 | 74 | 49 | 4.0 | 8.0 | 0.00 | 0.00 | 0.00 | 75 | 1012.6 |
| 20260902123815 | 74 | 5 | 6.0 | 9.0 | 0.00 | 0.00 | 0.00 | 75 | 1012.5 |
| 20260902122704 | 74 | 6 | 8.0 | 11.0 | 0.00 | 0.00 | 0.00 | 76 | 1012.2 |
| 20260902121803 | 73 | 10 | 9.0 | 10.0 | 0.00 | 0.00 | 0.00 | 77 | 1012.2 |
| 20260902120904 | 73 | 108 | 7.0 | 9.0 | 0.00 | 0.00 | 0.00 | 77 | 1012.2 |
| 20260902120215 | 73 | 97 | 6.0 | 8.0 | 0.00 | 0.00 | 0.00 | 77 | 1012.2 |
| 20260902115403 | 73 | 89 | 6.0 | 8.0 | 0.00 | 0.00 | 0.00 | 76 | 1012.1 |
| 20260902114503 | 73 | 101 | 4.0 | 7.0 | 0.00 | 0.00 | 0.00 | 75 | 1012.1 |
| 20260902113816 | 73 | 126 | 4.0 | 7.0 | 0.00 | 0.00 | 0.00 | 75 | 1012.1 |
| 20260902112703 | 73 | 114 | 5.0 | 10.0 | 0.00 | 0.00 | 0.00 | 76 | 1012.0 |
| 20260902111803 | 73 | 19 | 7.0 | 10.0 | 0.00 | 0.00 | 0.00 | 76 | 1012.0 |
| 20260902111113 | 73 | 43 | 7.0 | 9.0 | 0.00 | 0.00 | 0.00 | 76 | 1012.0 |
| 20260902110005 | 73 | 75 | 4.0 | 6.0 | 0.00 | 0.00 | 0.00 | 75 | 1012.1 |
| 20260902105404 | 73 | 91 | 3.0 | 6.0 | 0.00 | 0.00 | 0.00 | 75 | 1012.1 |
| 20260902104503 | 73 | 72 | 4.0 | 7.0 | 0.00 | 0.00 | 0.00 | 76 | 1012.1 |
| 20260902103603 | 73 | 25 | 7.0 | 9.0 | 0.00 | 0.00 | 0.00 | 76 | 1012.0 |
| 20260902102703 | 73 | 43 | 8.0 | 10.0 | 0.00 | 0.00 | 0.00 | 76 | 1012.0 |
| 20260902102016 | 73 | 52 | 7.0 | 9.0 | 0.00 | 0.00 | 0.00 | 75 | 1012.0 |
| 20260902100903 | 73 | 99 | 6.0 | 8.0 | 0.00 | 0.00 | 0.00 | 74 | 1012.1 |
| 20260902095403 | 73 | 110 | 5.0 | 7.0 | 0.00 | 0.00 | 0.00 | 75 | 1012.0 |
| 20260902094504 | 73 | 75 | 7.0 | 8.0 | 0.00 | 0.00 | 0.00 | 76 | 1012.0 |
| 20260902093817 | 73 | 76 | 7.0 | 8.0 | 0.00 | 0.00 | 0.00 | 75 | 1011.9 |
| 20260902092703 | 73 | 106 | 6.0 | 7.0 | 0.00 | 0.00 | 0.00 | 74 | 1012.0 |
| 20260902092017 | 73 | 93 | 7.0 | 8.0 | 0.00 | 0.00 | 0.00 | 74 | 1012.0 |
| 20260902090903 | 74 | 98 | 7.0 | 9.0 | 0.00 | 0.00 | 0.00 | 73 | 1011.9 |
| 20260902090004 | 74 | 84 | 7.0 | 9.0 | 0.00 | 0.00 | 0.00 | 73 | 1011.9 |
| 20260902085403 | 74 | 29 | 8.0 | 9.0 | 0.00 | 0.00 | 0.00 | 73 | 1011.8 |
| 20260902084503 | 73 | 25 | 8.0 | 9.0 | 0.00 | 0.00 | 0.00 | 74 | 1011.8 |
| 20260902083813 | 73 | 109 | 7.0 | 9.0 | 0.00 | 0.00 | 0.00 | 74 | 1011.8 |
| 20260902082915 | 73 | 123 | 7.0 | 9.0 | 0.00 | 0.00 | 0.00 | 74 | 1011.9 |
| 20260902081803 | 74 | 110 | 8.0 | 10.0 | 0.00 | 0.00 | 0.00 | 73 | 1011.8 |
| 20260902080903 | 74 | 110 | 8.0 | 10.0 | 0.00 | 0.00 | 0.00 | 72 | 1011.8 |
| 20260902080217 | 74 | 62 | 7.0 | 10.0 | 0.00 | 0.00 | 0.00 | 71 | 1011.7 |
| 20260902075403 | 75 | 13 | 8.0 | 11.0 | 0.00 | 0.00 | 0.00 | 71 | 1011.8 |
| 20260902074503 | 75 | 4 | 10.0 | 12.0 | 0.00 | 0.00 | 0.00 | 70 | 1011.6 |
| 20260902073813 | 75 | 8 | 10.0 | 12.0 | 0.00 | 0.00 | 0.00 | 70 | 1011.7 |
| 20260902072703 | 75 | 11 | 10.0 | 12.0 | 0.00 | 0.00 | 0.00 | 69 | 1011.7 |
| 20260902072013 | 76 | 7 | 11.0 | 12.0 | 0.00 | 0.00 | 0.00 | 69 | 1011.7 |
| 20260902070903 | 76 | 20 | 11.0 | 13.0 | 0.00 | 0.00 | 0.00 | 68 | 1011.7 |
| 20260902070005 | 76 | 43 | 11.0 | 13.0 | 0.00 | 0.00 | 0.00 | 67 | 1011.6 |
| 20260902065614 | 76 | 80 | 10.0 | 12.0 | 0.00 | 0.00 | 0.00 | 67 | 1011.6 |
| 20260902064503 | 77 | 118 | 10.0 | 12.0 | 0.00 | 0.00 | 0.00 | 66 | 1011.8 |
| 20260902063814 | 77 | 120 | 11.0 | 13.0 | 0.00 | 0.00 | 0.00 | 65 | 1011.6 |
| 20260902062703 | 77 | 120 | 11.0 | 12.0 | 0.00 | 0.00 | 0.00 | 65 | 1011.7 |
| 20260902061803 | 77 | 100 | 10.0 | 13.0 | 0.00 | 0.00 | 0.00 | 65 | 1011.8 |
| 20260902060903 | 77 | 60 | 11.0 | 13.0 | 0.00 | 0.00 | 0.00 | 64 | 1011.7 |
| 20260902055403 | 78 | 78 | 11.0 | 13.0 | 0.00 | 0.00 | 0.00 | 64 | 1011.6 |
| 20260902054503 | 78 | 84 | 10.0 | 13.0 | 0.00 | 0.00 | 0.00 | 64 | 1011.6 |
| 20260902053603 | 78 | 110 | 10.0 | 12.0 | 0.00 | 0.00 | 0.00 | 63 | 1011.6 |
| 20260902052703 | 78 | 116 | 10.0 | 11.0 | 0.00 | 0.00 | 0.00 | 62 | 1011.6 |
| 20260902052014 | 78 | 97 | 10.0 | 12.0 | 0.00 | 0.00 | 0.00 | 62 | 1011.6 |
| 20260902051117 | 79 | 79 | 10.0 | 12.0 | 0.00 | 0.00 | 0.00 | 62 | 1011.7 |
| 20260902050214 | 79 | 54 | 10.0 | 12.0 | 0.00 | 0.00 | 0.00 | 62 | 1011.6 |
| 20260902045403 | 79 | 45 | 10.0 | 11.0 | 0.00 | 0.00 | 0.00 | 61 | 1011.7 |
| 20260902044713 | 79 | 53 | 10.0 | 12.0 | 0.00 | 0.00 | 0.00 | 61 | 1011.6 |
| 20260902043603 | 79 | 50 | 10.0 | 12.0 | 0.00 | 0.00 | 0.00 | 61 | 1011.7 |
| 20260902042913 | 79 | 75 | 10.0 | 12.0 | 0.00 | 0.00 | 0.00 | 62 | 1011.7 |
| 20260902042015 | 80 | 125 | 10.0 | 11.0 | 0.00 | 0.00 | 0.00 | 62 | 1011.6 |
| 20260902041112 | 80 | 126 | 10.0 | 12.0 | 0.00 | 0.00 | 0.00 | 62 | 1011.7 |
| 20260902040003 | 80 | 118 | 10.0 | 13.0 | 0.00 | 0.00 | 0.00 | 62 | 1011.6 |
| 20260902035403 | 80 | 105 | 11.0 | 12.0 | 0.00 | 0.00 | 0.00 | 62 | 1011.7 |
| 20260902034714 | 81 | 107 | 11.0 | 13.0 | 0.00 | 0.00 | 0.00 | 61 | 1011.6 |
| 20260902033603 | 82 | 128 | 10.0 | 12.0 | 0.00 | 0.00 | 0.00 | 59 | 1011.7 |
| 20260902032913 | 82 | 118 | 10.0 | 13.0 | 0.00 | 0.00 | 0.00 | 58 | 1011.6 |
| 20260902032016 | 82 | 80 | 11.0 | 14.0 | 0.00 | 0.00 | 0.00 | 58 | 1011.4 |
| 20260902030903 | 83 | 62 | 12.0 | 15.0 | 0.00 | 0.00 | 0.00 | 57 | 1011.3 |
| 20260902030003 | 83 | 57 | 12.0 | 15.0 | 0.00 | 0.00 | 0.00 | 58 | 1011.2 |
| 20260902025403 | 83 | 58 | 13.0 | 15.0 | 0.00 | 0.00 | 0.00 | 58 | 1011.2 |
| 20260902024503 | 83 | 67 | 13.0 | 16.0 | 0.00 | 0.00 | 0.00 | 58 | 1011.1 |
| 20260902023603 | 84 | 85 | 13.0 | 15.0 | 0.00 | 0.00 | 0.00 | 56 | 1011.0 |
| 20260902022914 | 84 | 96 | 13.0 | 15.0 | 0.00 | 0.00 | 0.00 | 56 | 1010.9 |
| 20260902021803 | 85 | 80 | 13.0 | 15.0 | 0.00 | 0.00 | 0.00 | 55 | 1010.7 |
| 20260902021114 | 85 | 74 | 12.0 | 15.0 | 0.00 | 0.00 | 0.00 | 54 | 1010.7 |
| 20260902020003 | 86 | 79 | 13.0 | 16.0 | 0.00 | 0.00 | 0.00 | 51 | 1010.5 |
| 20260902015403 | 86 | 89 | 13.0 | 16.0 | 0.00 | 0.00 | 0.00 | 50 | 1010.4 |
| 20260902014715 | 87 | 113 | 14.0 | 18.0 | 0.00 | 0.00 | 0.00 | 49 | 1010.3 |
| 20260902013812 | 88 | 122 | 13.0 | 18.0 | 0.00 | 0.00 | 0.00 | 47 | 1010.2 |
| 20260902012915 | 87 | 131 | 11.0 | 16.0 | 0.00 | 0.00 | 0.00 | 48 | 1010.1 |
| 20260902011803 | 87 | 133 | 10.0 | 13.0 | 0.00 | 0.00 | 0.00 | 49 | 1010.0 |
| 20260902010903 | 87 | 124 | 11.0 | 14.0 | 0.00 | 0.00 | 0.00 | 50 | 1009.9 |
| 20260902010217 | 87 | 115 | 11.0 | 14.0 | 0.00 | 0.00 | 0.00 | 50 | 1009.9 |
| 20260902005613 | 88 | 117 | 11.0 | 14.0 | 0.00 | 0.00 | 0.00 | 49 | 1009.9 |
| 20260902004503 | 89 | 120 | 11.0 | 13.0 | 0.00 | 0.00 | 0.00 | 47 | 1009.9 |
| 20260902003603 | 91 | 119 | 10.0 | 13.0 | 0.00 | 0.00 | 0.00 | 45 | 1009.9 |
| 20260902002915 | 92 | 128 | 10.0 | 13.0 | 0.00 | 0.00 | 0.00 | 43 | 1010.0 |
| 20260902002012 | 93 | 131 | 10.0 | 13.0 | 0.00 | 0.00 | 0.00 | 42 | 1010.0 |
| 20260902000903 | 94 | 126 | 10.0 | 14.0 | 0.00 | 0.00 | 0.00 | 41 | 1010.1 |
| 20260902000004 | 95 | 126 | 10.0 | 15.0 | 0.00 | 0.00 | 0.00 | 40 | 1010.1 |
| 20260901235403 | 96 | 130 | 11.0 | 15.0 | 0.00 | 0.00 | 0.00 | 38 | 1010.2 |
| 20260901234716 | 97 | 134 | 12.0 | 16.0 | 0.00 | 0.00 | 0.00 | 37 | 1010.2 |
| 20260901233603 | 97 | 134 | 12.0 | 15.0 | 0.00 | 0.00 | 0.00 | 37 | 1010.2 |
| 20260901232916 | 98 | 137 | 13.0 | 19.0 | 0.00 | 0.00 | 0.00 | 36 | 1010.3 |
| 20260901231803 | 98 | 137 | 13.0 | 21.0 | 0.00 | 0.00 | 0.00 | 36 | 1010.4 |
| 20260901230903 | 99 | 141 | 12.0 | 17.0 | 0.00 | 0.00 | 0.00 | 36 | 1010.3 |
| 20260901230213 | 100 | 150 | 13.0 | 21.0 | 0.00 | 0.00 | 0.00 | 34 | 1010.3 |
| 20260901225614 | 100 | 148 | 13.0 | 21.0 | 0.00 | 0.00 | 0.00 | 33 | 1010.4 |
| 20260901224717 | 100 | 143 | 13.0 | 23.0 | 0.00 | 0.00 | 0.00 | 33 | 1010.4 |
| 20260901223814 | 100 | 136 | 15.0 | 20.0 | 0.00 | 0.00 | 0.00 | 34 | 1010.4 |
| 20260901222916 | 101 | 150 | 14.0 | 24.0 | 0.00 | 0.00 | 0.00 | 33 | 1010.5 |
| 20260901222014 | 101 | 143 | 12.0 | 20.0 | 0.00 | 0.00 | 0.00 | 33 | 1010.5 |
| 20260901221116 | 101 | 145 | 15.0 | 24.0 | 0.00 | 0.00 | 0.00 | 33 | 1010.5 |
| 20260901220003 | 101 | 159 | 16.0 | 23.0 | 0.00 | 0.00 | 0.00 | 32 | 1010.5 |
| 20260901215615 | 101 | 154 | 16.0 | 26.0 | 0.00 | 0.00 | 0.00 | 32 | 1010.5 |
| 20260901214503 | 101 | 152 | 17.0 | 26.0 | 0.00 | 0.00 | 0.00 | 32 | 1010.6 |
| 20260901213603 | 102 | 152 | 16.0 | 24.0 | 0.00 | 0.00 | 0.00 | 33 | 1010.7 |
| 20260901212917 | 102 | 159 | 14.0 | 24.0 | 0.00 | 0.00 | 0.00 | 32 | 1010.7 |